Home   Weather   Firenze   Past weeks
Flag for Italy

Past Weather in Firenze, Italy — Yesterday and Last 2 Weeks

Now
39 °F

Passing clouds.


Feels Like: 37 °F
Forecast: 61 / 37 °F
Wind: 3 mph from East

Location: Florence / Peretola

Current Time: Feb 16, 2019 at 6:38:07 am

Latest Report: Feb 16, 2019 at 5:50 am


Visibility: N/A

Pressure: 30.42 "Hg

Humidity: 70%

Dew Point: 30 °F

Location of FirenzeLocation

Past Weather in Firenze — Graph

°F

Firenze Temperature Yesterday

Maximum temperature yesterday: 68 °F (at 3:20 pm)
Minimum temperature yesterday: 30 °F (at 4:50 am)
Average temperature yesterday: 48 °F

High & Low Weather Summary for the Past Weeks

 TemperatureHumidityPressure
High68 °F (Feb 15, 3:20 pm)100% (Feb 1, 5:20 am)30.60 "Hg (Feb 1, 5:20 am)
Low28 °F (Feb 12, 7:20 am)20% (Feb 12, 1:50 pm)29.33 "Hg (Feb 2, 2:50 am)
Average48 °F65%30.07 "Hg
* Reported Feb 1 5:20 am — Feb 16 5:20 am, Firenze. Weather by CustomWeather, © 2019

Note: Actual official high and low records may vary slightly from our data, if they occured in-between our weather recording intervals... More about our weather records

Advertising

Firenze Weather History for the Previous 24 Hours

Scroll right to see more
 ConditionsComfort  
Time TempWeatherWind HumidityBarometerVisibility
5:20 am
Sat, Feb 16
39 °FClear.2 mph70%30.42 "Hg10 mi
4:50 am41 °FClear.3 mph66%30.42 "Hg10 mi
4:20 am45 °FClear.2 mph57%30.42 "Hg10 mi
3:50 am48 °FClear.8 mph50%30.42 "Hg10 mi
3:20 am52 °FClear.12 mph44%30.42 "Hg10 mi
2:50 am48 °FClear.8 mph54%30.42 "Hg10 mi
2:20 am50 °FPassing clouds.6 mph47%30.42 "HgN/A
1:50 am48 °FPassing clouds.6 mph50%30.42 "HgN/A
1:20 am52 °FPassing clouds.6 mph44%30.45 "HgN/A
12:50 am52 °FPassing clouds.8 mph44%30.42 "HgN/A
12:20 am54 °FPassing clouds.7 mph41%30.42 "HgN/A
11:50 pm
Fri, Feb 15
54 °FPassing clouds.8 mph41%30.42 "HgN/A
11:20 pm55 °FClear.7 mph38%30.42 "Hg10 mi
10:50 pm54 °FClear.2 mph38%30.42 "Hg10 mi
10:20 pm54 °FPassing clouds.5 mph41%30.42 "HgN/A
9:50 pm54 °FPassing clouds.7 mph41%30.39 "HgN/A
9:20 pm55 °FClear.13 mph36%30.39 "Hg10 mi
8:50 pm55 °FClear.12 mph38%30.39 "Hg10 mi
8:20 pm57 °FClear.10 mph36%30.39 "Hg10 mi
7:50 pm55 °FClear.13 mph41%30.39 "Hg10 mi
6:50 pm59 °FClear.10 mph36%30.39 "Hg10 mi
6:20 pm61 °FClear.12 mph34%30.39 "Hg10 mi
5:50 pm61 °FClear.9 mph34%30.36 "Hg10 mi
5:20 pm64 °FSunny.12 mph22%30.36 "Hg10 mi
4:50 pm66 °FPassing clouds.12 mph24%30.36 "HgN/A
4:20 pm68 °FPassing clouds.9 mph21%30.33 "HgN/A
3:50 pm68 °FSunny.3 mph24%30.33 "Hg10 mi
3:20 pm68 °FSunny.6 mph30%30.33 "Hg10 mi
2:50 pm66 °FPassing clouds.5 mph32%30.33 "HgN/A
2:20 pm63 °FPassing clouds.6 mph39%30.36 "HgN/A
1:50 pm61 °FPassing clouds.6 mph45%30.36 "HgN/A
12:50 pm57 °FPassing clouds.5 mph48%30.39 "HgN/A
12:20 pm55 °FSunny.1 mph47%30.42 "Hg10 mi
11:50 am54 °FSunny.2 mph51%30.42 "Hg10 mi
11:20 am50 °FSunny.2 mph58%30.45 "Hg10 mi
10:50 am46 °FSunny.2 mph66%30.45 "Hg10 mi
10:20 am45 °FSunny.2 mph71%30.45 "Hg10 mi
9:50 am45 °FSunny.1 mph66%30.45 "Hg10 mi
9:20 am41 °FSunny.1 mph76%30.45 "Hg10 mi
8:50 am37 °FSunny.1 mph87%30.45 "Hg10 mi
8:20 am34 °FSunny.1 mph100%30.45 "Hg10 mi
7:50 am30 °FSunny.1 mph100%30.45 "Hg10 mi
7:20 am32 °FSunny.1 mph100%30.45 "Hg10 mi
6:50 am30 °FClear.1 mph100%30.45 "Hg10 mi
6:20 am30 °FClear.1 mph100%30.45 "Hg10 mi
Weather by CustomWeather, © 2019

See weather overview